Regional Weather Roundup
Issued by NWS New Orleans/Baton Rouge, LA

Current Version | Previous Version | Text Only | Print | Product List | Glossary On
Versions: 1 2 3 4 5 6 7 8 9 10 11 12 13 14 15 16 17 18 19 20 21 22 23 24 25 26 27 28 29 30 31 32 33 34 35 36 37 38 39 40 41 42 43 44 45 46 47 48 49 50
000
ASUS44 KLIX 290107
RWRLIX
NEW ORLEANS REGIONAL WEATHER ROUNDUP
NATIONAL WEATHER SERVICE NEW ORLEANS LA
800 PM CDT FRI AUG 28 2015

NOTE: "FAIR" INDICATES FEW OR NO CLOUDS BELOW 12,000 FEET WITH NO
      SIGNIFICANT WEATHER AND/OR OBSTRUCTIONS TO VISIBILITY.
      SKY/WX - SKY CONDITION AND SIGNIFICANT WEATHER.
      TMP - AIR TEMPERATURE.     DP    - DEWPOINT TEMPERATURE.
      RH  - RELATIVE HUMIDITY.   PRES  - PRESSURE.
      HI  - HEAT INDEX.          WCI   - WIND CHILL INDEX.

*  THESE STATIONS ARE NOT NWS OR FAA STATIONS AND ARE NOT UNDER
   NWS QUALITY CONTROL.

LAZ038-040-048-061>063-065>067-069-290200-
SOUTHEAST LOUISIANA

CITY           SKY/WX    TMP DP  RH WIND       PRES   REMARKS
N.O. AUDUBON     N/A     84  64  49 MISG        N/A
N.O. INTL ARPT PTCLDY    83  61  47 E6        29.97R
N.O. LAKEFRONT CLEAR     82  65  56 E9        29.98R
N.O. DOWNTOWN*   N/A     84  63  48 E5        29.98R
RESERVE*         N/A     83  70  64 E6        29.97R
SLIDELL        CLEAR     79  68  69 E3        29.98R
BATON ROUGE    CLEAR     81  65  58 W5        29.96R
BOOTHVILLE     PTCLDY    81  69  67 SE6       29.99R
BELLE CHASSE   PTCLDY    80  67  64 E5        29.97R
BOGALUSA*      NOT AVBL
GALLIANO*      CLEAR     78  68  71 CALM      29.97R
NEW ROADS*       N/A     80  68  68 CALM      29.97S
GONZALES*        N/A     78  70  78 CALM      29.96R
HAMMOND*       CLEAR     79  64  61 SE7       30.00R
HOUMA*         PTCLDY    80  70  71 E5        29.97R
PORT FOURCHON* CLEAR     84  66  54 NE5       29.97S

$$

MSZ070-080>082-290200-
SOUTHERN MISSISSIPPI

CITY           SKY/WX    TMP DP  RH WIND       PRES   REMARKS
MCCOMB         CLEAR     79  65  62 CALM      29.97S
GULFPORT       CLEAR     80  66  62 S5        29.98R
BILOXI         CLEAR     81  65  57 S9        29.98R
PASCAGOULA     CLEAR     73  70  90 CALM      29.99R
STENNIS ARPT*  CLEAR     79  61  53 SE3       29.99R

$$

COASTAL OBSERVATIONS
LAKE AND NEARSHORE STATIONS

STATION/POSITION TIME  TEMP    WIND        PRES    WAVE
                       AIR SEA DIR/SP/G            HT/PER
                 (UTC) (F)     (DEG/KT/KT) (MB)    (FT/S)

OFFSHORE STATIONS

STATION/POSITION TIME  TEMP    WIND        PRES    WAVE
                       AIR SEA DIR/SP/G            HT/PER
                 (UTC) (F)     (DEG/KT/KT) (MB)    (FT/S)
64 S DAUPHIN ISL 0050   82 86  150/  6/  6 1015.8    1

$$



USA.gov is the U.S. government's official web portal to all federal, state and local government web resources and services.